Flag Weather past 2 weeks in Worms, Rhineland-Palatinate, Germany

Now
43 °F

Fog.


Feels Like: 41 °F
Forecast: 44 / 51 °F
Wind: 3 mph from North

Location: Baden Wurttemberg - Neuostheim

Current Time: Nov 23, 2014 at 3:29:38 PM

Latest Report: Nov 23, 2014 at 2:50 PM


Visibility: 2 mi

Pressure: 30.15 "Hg

Humidity: 100%

Dew point: 43 °F

Location of WormsLocation

Historic Weather in Worms — Graph

°F

Worms temperature yesterday

Maximum temperature yesterday: 52 °F (at 1:20 PM)
Minimum temperature yesterday: 41 °F (at 7:20 AM)
Average temperature yesterday: 47 °F

Past Weeks' High & Low Weather Summary

 TemperatureHumidityPressure
High57 °F (Nov 8, 2:20 PM)100% (Nov 9, 4:50 AM)30.33 "Hg (Nov 9, 4:50 AM)
Low32 °F (Nov 21, 6:50 AM)59% (Nov 8, 3:50 PM)29.59 "Hg (Nov 15, 4:50 PM)
Average48 °F88%29.90 "Hg
* Reported Nov 8 2:20 PM — Nov 23 2:20 PM, Worms, Weather by CustomWeather, © 2014

Note: Actual official high and low records may vary slightly from our data, if they occured in-between our weather recording intervals... More about our weather records

Advertising

Worms weather history for previous 24 hours

 ConditionsComfort  
Time TempWeatherWind HumidityBarometerVisibility
2:20 PM
Nov 23
43 °FFog.2 mph100%30.15 "Hg2 mi
1:50 PM43 °FFog.3 mph100%30.15 "Hg2 mi
1:20 PM41 °FFog.3 mph100%30.18 "Hg1 mi
12:50 PM41 °FFog.3 mph100%30.18 "Hg1 mi
12:20 PM41 °FFog.2 mph100%30.18 "Hg1 mi
11:50 AM41 °FFog.2 mph100%30.18 "Hg1 mi
11:20 AM41 °FFog.2 mph100%30.21 "Hg1 mi
10:50 AM39 °FFog.1 mph100%30.21 "Hg1 mi
10:20 AM39 °FSnow. Cloudy.1 mph100%30.21 "Hg1 mi
9:50 AM39 °FFog.1 mph100%30.21 "Hg1 mi
9:20 AM39 °FFog.2 mph100%30.21 "Hg1 mi
8:50 AM39 °FFog.1 mph100%30.21 "Hg1 mi
8:20 AM39 °FFog.1 mph100%30.21 "Hg0 mi
7:50 AM39 °FFog.1 mph100%30.21 "Hg1 mi
7:50 PM
Nov 22
43 °FClear.2 mph93%30.15 "Hg4 mi
7:20 PM43 °FClear.2 mph93%30.15 "Hg5 mi
6:50 PM45 °FClear.2 mph93%30.15 "Hg6 mi
6:20 PM45 °FClear.2 mph93%30.15 "Hg10 mi
5:50 PM46 °FClear.2 mph87%30.15 "Hg10 mi
5:20 PM48 °FClear.3 mph87%30.15 "Hg10 mi
4:50 PM48 °FPassing clouds.5 mph87%30.15 "Hg6 mi
4:20 PM50 °FPassing clouds.3 mph82%30.15 "Hg6 mi
3:50 PM52 °FPartly sunny.3 mph77%30.15 "Hg6 mi
3:20 PM52 °FPassing clouds.2 mph77%30.15 "Hg6 mi
Weather by CustomWeather, © 2014

See weather overviewHow to use our weather pages